Regional Weather Roundup
Issued by NWS

Home | Current Version | Previous Version | Graphics & Text | Print | Product List | Glossary On
Versions: 1 2 3 4 5 6 7 8 9 10 11 12 13 14 15 16 17 18 19 20 21 22 23 24 25 26 27 28 29 30 31 32 33 34 35 36 37 38 39 40 41 42 43 44 45 46 47 48 49 50
000
ASUS43 KTOP 250059
RWRKS

WEATHER ROUNDUP FOR KANSAS
NATIONAL WEATHER SERVICE GOODLAND KS
800 PM CDT SUN MAY 24 2015

NOTE:  "FAIR" INDICATES FEW OR NO CLOUDS BELOW 12,000 FEET WITH NO
SIGNIFICANT WEATHER AND/OR OBSTRUCTIONS TO VISIBILITY.

KSZ001>006-013>018-027>032-041>047-250200-
NORTHWEST KANSAS

CITY           SKY/WX    TMP DP  RH WIND       PRES   REMARKS
GOODLAND       TSTM      51  48  89 W15G35    29.84R
HAYS           CLOUDY    63  55  77 S12       29.78F
HILL CITY      CLOUDY    67  59  75 SE8       29.77S
RUSSELL        CLOUDY    65  61  87 S12       29.78S
$$

KSZ061>065-074>080-084>089-250200-
SOUTHWEST KANSAS

CITY           SKY/WX    TMP DP  RH WIND       PRES   REMARKS
DODGE CITY     CLOUDY    61  58  90 SE16      29.79R FOG
ELKHART          N/A     69  48  47 S9          N/A
GARDEN CITY    MOCLDY    63  59  87 SE22      29.75F
GREAT BEND     CLOUDY    63  57  82 S8        29.80R
LIBERAL        MOCLDY    70  57  64 E15G22    29.73F THUNDER
$$

KSZ066>073-081>083-090>101-250200-
SOUTHEAST KANSAS

CITY           SKY/WX    TMP DP  RH WIND       PRES   REMARKS
CHANUTE        LGT RAIN  65  63  93 CALM      29.85R
COFFEYVILLE    LGT RAIN  64  63  96 S5        29.86R FOG
HUTCHINSON     CLOUDY    62  57  83 SE8       29.81S
NEWTON         CLOUDY    61  55  82 S10       29.85F
PARSONS        LGT RAIN  66  65  96 SW3       29.87R
WICHITA INTL   LGT RAIN  63  59  87 SE14      29.79F
WICHITA JABRA  LGT RAIN  62  61  96 S9        29.82F
WICHITA MCCONL CLOUDY    63  61  94 SE10      29.82F
WINFIELD       LGT RAIN  64  63  96 CALM      29.85F
$$

KSZ007>012-019>026-033>040-048>060-102>105-250200-
NORTHEAST KANSAS

CITY           SKY/WX    TMP DP  RH WIND       PRES   REMARKS
CONCORDIA      CLOUDY    65  61  87 SE9       29.78F
EMPORIA        LGT RAIN  63  61  93 S10       29.83S
LAWRENCE       CLOUDY    66  60  81 SW6       29.82F
MANHATTAN      CLOUDY    66  61  84 S6        29.80F
OLATHE IND     CLOUDY    66  61  84 SW5       29.82F
OLATHE EXE     CLOUDY    66  61  84 W3        29.81F
SALINA         CLOUDY    67  61  81 S10       29.80F
TOPEKA BILLARD CLOUDY    66  62  87 CALM      29.81F
TOPEKA FORBES  CLOUDY    66  62  87 S5        29.81F
$$



USA.gov is the U.S. government's official web portal to all federal, state and local government web resources and services.